Weather History for Kalamazoo, MI

Change the Weather History Date:

Thursday, June 7, 2012

  Actual Average Record
Temperature  
Mean Temperature 66 °F 66 °F  
Max Temperature 81 °F 77 °F 95 °F (2011)
Min Temperature 51 °F 55 °F 38 °F (1958)
Degree Days  
Heating Degree Days 0 3  
Month to date heating degree days 24  
Since 1 June heating degree days 24  
Since 1 July heating degree days 6392  
Cooling Degree Days 1 3  
Month to date cooling degree days 21  
Year to date cooling degree days 62  
Since 1 June cooling degree days 21  
Growing Degree Days 16 (Base 50)    
Moisture  
Dew Point 48 °F    
Average Humidity 53    
Maximum Humidity 93    
Minimum Humidity 30    
Precipitation  
Precipitation 0.00 in 0.14 in 1.23 in (1967)
Month to date precipitation 0.44 0.98  
Year to date precipitation 13.42  
Sea Level Pressure  
Sea Level Pressure 30.09 in    
Wind  
Wind Speed 5 mph (NW)    
Max Wind Speed 17 mph    
Max Gust Speed 23 mph    
Visibility 10 miles    
Events      
T = Trace of Precipitation, MM = Missing Value Source: NWS Daily Summary

Daily Weather History Graph

Daily Weather History Graph

Search for Another Location

Airport:

Trip Planner

Search our weather history database for the weather conditions in past years. The results will help you decide how hot, cold, wet, or windy it might be!

Date:

Astronomy

Jun. 07, 2012 Rise Set
Actual Time 6:06 AM EDT 9:16 PM EDT
Civil Twilight 5:31 AM EDT 9:50 PM EDT
Nautical Twilight 4:47 AM EDT 10:35 PM EDT
Astronomical Twilight 3:54 AM EDT 11:28 PM EDT
Moon No Moon Rise 9:38 AM EDT (6/7)
Length of Visible Light 16h 19m
Length of Day
15h 10m
Waning Gibbous, 86% of the Moon is Illuminated
Jun 7
Waning Gibbous
Jun 11
Last Quarter
Jun 19
New
Jun 26
First Quarter
Jul 3
Full

Hourly Weather History & Observations

Time (EDT) Temp. Dew Point Humidity Pressure Visibility Wind Dir Wind Speed Gust Speed Precip Events Conditions
12:53 AM 60.1 °F 48.9 °F 67% 30.08 in 10.0 mi NW 3.5 mph - N/A   Scattered Clouds
1:53 AM 57.0 °F 48.9 °F 74% 30.08 in 10.0 mi Calm Calm - N/A   Clear
2:53 AM 57.0 °F 48.9 °F 74% 30.07 in 10.0 mi Calm Calm - N/A   Clear
3:53 AM 55.9 °F 48.9 °F 77% 30.08 in 10.0 mi Calm Calm - N/A   Clear
4:53 AM 54.0 °F 50.0 °F 86% 30.09 in 10.0 mi Calm Calm - N/A   Clear
5:53 AM 52.0 °F 50.0 °F 93% 30.10 in 10.0 mi Calm Calm - N/A   Clear
6:53 AM 52.0 °F 48.9 °F 89% 30.12 in 10.0 mi Calm Calm - N/A   Clear
7:53 AM 61.0 °F 53.1 °F 75% 30.12 in 10.0 mi Calm Calm - N/A   Clear
8:53 AM 69.1 °F 53.1 °F 57% 30.12 in 10.0 mi North 3.5 mph - N/A   Clear
9:53 AM 72.0 °F 52.0 °F 49% 30.12 in 10.0 mi North 6.9 mph - N/A   Clear
10:53 AM 75.0 °F 48.9 °F 40% 30.12 in 10.0 mi North 5.8 mph - N/A   Clear
11:53 AM 77.0 °F 48.9 °F 37% 30.12 in 10.0 mi NNW 13.8 mph - N/A   Partly Cloudy
12:53 PM 75.9 °F 46.9 °F 36% 30.12 in 10.0 mi Variable 6.9 mph - N/A   Scattered Clouds
1:53 PM 78.1 °F 48.0 °F 35% 30.10 in 10.0 mi NNW 11.5 mph 16.1 mph N/A   Scattered Clouds
2:53 PM 80.1 °F 46.0 °F 30% 30.09 in 10.0 mi NNW 8.1 mph - N/A   Scattered Clouds
3:53 PM 80.1 °F 46.0 °F 30% 30.09 in 10.0 mi NNW 9.2 mph - N/A   Mostly Cloudy
4:53 PM 79.0 °F 46.9 °F 32% 30.08 in 10.0 mi WNW 12.7 mph - N/A   Partly Cloudy
5:53 PM 78.1 °F 46.0 °F 32% 30.08 in 10.0 mi NW 12.7 mph - N/A   Partly Cloudy
6:53 PM 77.0 °F 44.1 °F 31% 30.07 in 10.0 mi NW 13.8 mph - N/A   Clear
7:53 PM 73.9 °F 42.1 °F 32% 30.07 in 10.0 mi NW 13.8 mph - N/A   Clear
8:53 PM 70.0 °F 43.0 °F 38% 30.06 in 10.0 mi NW 6.9 mph - N/A   Clear
9:53 PM 64.0 °F 44.1 °F 48% 30.07 in 10.0 mi West 3.5 mph - N/A   Clear
10:53 PM 64.0 °F 44.1 °F 48% 30.08 in 10.0 mi Calm Calm - N/A   Clear
11:53 PM 57.9 °F 46.0 °F 65% 30.07 in 10.0 mi Calm Calm - N/A   Clear